STARLINK-31768 (59616 NORAD) Tracking and Keplerian Element Data

This shows tracking and keplerian element data for the satellite.

Feedback or suggestion? Click here.




ElementValue
Catalog59616
NameSTARLINK-31768
Epoch Orbit750
Epoch Day160.16705733
Epoch Year2024
RAAN87.8735
Inclination42.9998
Eccentricity0.0001393
Argument of Perigee273.7213
Mean Anonmoly86.3484
Mean Motion15.4069215
Decay Rate2.58E-06
L11 59616U 24080R 24160.16705733 .00000258 00000+0 13452-4 0 9999
L22 59616 42.9998 87.8735 0001393 273.7213 86.3484 15.40692150 7507



Live tracking and technical data element details for STARLINK-31768 (NORAD 59616). STARLINK-31768 can be tracked NOW for your location showing map with azimuth and elevation plus other details from your city location.







IsCatalogInMostPopularTable: catalog: 59616, numindb: 11
Update: records affected: 1



GetName: 59616 STARLINK-31768

Hit Count: updated at: Fri, 14 Jun 2024 19:42:42 GMT